Location: Del Amo
(33.8464°N, 118.2104°W)
Time: 18:02:55
(UTC+00:00)

Vanguard 2 Rocket - Pass Details

Date: 19 September 2024
Orbit: 553 x 3299 km, 32.9° (Epoch: 05 October)

Event Time Altitude Azimuth Distance (km) Brightness Sun altitude
Rises 09:00:54 0° 257° (WSW) 3,941 - -50.8°
Reaches altitude 10° 09:03:07 10° 256° (WSW) 3,234 - -50.6°
Maximum altitude 09:11:36 82° 170° (S) 1,856 - -49.6°
Exits shadow 09:16:07 48° 90° (E) 2,631 9.1 -49.1°
Drops below altitude 10° 09:27:04 10° 86° (E) 5,563 11.2 -47.7°
Sets 09:32:10 0° 86° (E) 6,886 11.8 -47.0°
